(678) Fredegundis
ephemeris date magn radius delta ra dec elong phase
Today26 Aug 202615.02.986 AU2.899 AU15h38m-22°04'85.0°19.7°
Opposition6 Sep 202711.82.193 AU1.193 AU22h47m+03°09'169.9°4.6°
(678) Fredegundis - 2026-08-26
astro.vanbuitenen.nl


 
-1 year
-1 month
-1 day
Now
+1 day
+1 month
+1 year

The interactive orbit chart above shows the body's path through the solar system and its position at the given date. Green and blue lines are shown perpendicular to the ecliptic plane: Green if the path is above the ecliptic plane, blue if it is below. (Left-click and drag to rotate the view; Right-click and drag to move the view; Use scroll wheel to zoom in our out.)

The orbital elements of Fredegundis are:

            e (Eccentricity)                : 0.2198745
            a (Semimajor axis)              : 2.5723710
            i (Inclination)                 : 6.09735
            Ω (Longitude of ascending node) : 281.05786
            ω (Argument of perihelion)      : 121.04897
            M (Mean anomaly)                : 212.93130
            Epoch                           : 2026 Jun 09

            L (Longitude of perihelion)     : 222.25065
            B (Latitude of perihelion)      : 5.22113
            P (Orbital period in years)     : 4.13            
        

The light curve chart below shows the estimated development of the minor planet's magnitude.


The all-sky chart below shows the path of the minor planet over the same period as the light curve. The current position is marked yellow.





The following chart shows the path of the minor planet in the next few days. The field of view is optimized for (~10x50) binoculars and finderscopes.




Ephemerides:
Date       Time       RA (2000)    DEC (2000)    delta   radius  elong  phase   PA    magn
2026-08-26 00:00 UT   15 38 12.0   -22 04 28     2.899    2.986   85.0   19.7   104   15.0 
2026-08-26 18:14 UT   15 38 50.2   -22 05 11     2.908    2.985   84.4   19.7   104   15.0 
2026-08-27 00:00 UT   15 39 02.4   -22 05 25     2.912    2.985   84.3   19.7   104   15.0 
2026-08-28 00:00 UT   15 39 53.8   -22 06 26     2.924    2.983   83.5   19.7   103   15.0 
2026-08-29 00:00 UT   15 40 46.2   -22 07 29     2.937    2.982   82.7   19.6   103   15.0 
2026-08-30 00:00 UT   15 41 39.4   -22 08 35     2.949    2.981   82.0   19.6   103   15.0 
2026-08-31 00:00 UT   15 42 33.6   -22 09 43     2.962    2.979   81.2   19.6   103   15.0 
2026-09-01 00:00 UT   15 43 28.7   -22 10 55     2.974    2.978   80.5   19.5   103   15.1 
2026-09-02 00:00 UT   15 44 24.6   -22 12 09     2.986    2.976   79.7   19.5   103   15.1 
2026-09-03 00:00 UT   15 45 21.4   -22 13 26     2.999    2.975   79.0   19.4   103   15.1 
2026-09-04 00:00 UT   15 46 19.1   -22 14 45     3.011    2.973   78.2   19.4   103   15.1 
2026-09-05 00:00 UT   15 47 17.7   -22 16 06     3.023    2.972   77.5   19.3   103   15.1 
2026-09-06 00:00 UT   15 48 17.1   -22 17 29     3.035    2.971   76.7   19.3   103   15.1 
2026-09-07 00:00 UT   15 49 17.3   -22 18 55     3.048    2.969   76.0   19.2   103   15.1 
2026-09-08 00:00 UT   15 50 18.4   -22 20 23     3.060    2.968   75.2   19.2   103   15.1 
2026-09-09 00:00 UT   15 51 20.3   -22 21 53     3.072    2.966   74.5   19.1   103   15.1 
2026-09-10 00:00 UT   15 52 23.0   -22 23 24     3.084    2.965   73.8   19.0   103   15.1 
2026-09-11 00:00 UT   15 53 26.5   -22 24 57     3.096    2.963   73.1   19.0   103   15.1 
2026-09-12 00:00 UT   15 54 30.9   -22 26 32     3.108    2.962   72.3   18.9   103   15.1 
2026-09-13 00:00 UT   15 55 36.0   -22 28 09     3.119    2.960   71.6   18.8   103   15.1 
2026-09-14 00:00 UT   15 56 41.9   -22 29 47     3.131    2.959   70.9   18.7   102   15.1 
2026-09-15 00:00 UT   15 57 48.5   -22 31 26     3.143    2.957   70.2   18.7   102   15.1 
2026-09-16 00:00 UT   15 58 55.9   -22 33 07     3.155    2.956   69.5   18.6   102   15.1 
2026-09-17 00:00 UT   16 00 04.1   -22 34 48     3.166    2.954   68.8   18.5   102   15.1 
2026-09-18 00:00 UT   16 01 13.0   -22 36 31     3.178    2.953   68.0   18.4   102   15.1 
2026-09-19 00:00 UT   16 02 22.6   -22 38 15     3.189    2.951   67.3   18.3   102   15.1 
2026-09-20 00:00 UT   16 03 32.9   -22 39 60     3.200    2.950   66.6   18.2   102   15.1 
2026-09-21 00:00 UT   16 04 44.0   -22 41 45     3.212    2.948   65.9   18.1   102   15.2 
2026-09-22 00:00 UT   16 05 55.7   -22 43 31     3.223    2.947   65.2   18.0   102   15.2 
2026-09-23 00:00 UT   16 07 08.1   -22 45 17     3.234    2.945   64.5   17.9   102   15.2 
2026-09-24 00:00 UT   16 08 21.2   -22 47 05     3.245    2.944   63.8   17.8   102   15.2 
2026-09-25 00:00 UT   16 09 35.0   -22 48 52     3.256    2.942   63.1   17.7   102   15.2 


    Terminology:
            
    delta:  distance between minor planet and earth in AU
    radius: distance between minor planet and sun in AU
    magn:   magnitude (brightness) estimate    
    ra:     right ascension in hours (24h = 360deg)
    dec:    declination in degrees
    elong:  elongation in degrees (angle sun-earth-minor planet)    
    phase:  phase angle in degrees (angle sun-minor planet-earth)        
    AU:     Astronomical Unit (mean distance between earth and sun: 149597870.7 km
    

Orbital elements provided by the MPC (Minor Planet Center).
Calculations by a modified version of AAPlus, a C# implementation of the AA+ project by PJ Naughter from the algorithms presented in the book "Astronomical Algorithms" by Jean Meeus.
NGC2000 dso catalog and star labels from VizieR as provided by the Strasbourg astronomical Data Center.
Tycho2 catalog from the ESO archive.